"startDT [UTC]","vpos","CH4 [ppm]","stdev(CH4) [ppm]","CO2 [ppm]","stdev(CO2) [ppm]","H2O_reported [%]","stdev(H2O_reported)","CavityPressure [torr]","CavityTemp [C]","OutletValve","CH4_dry [ppm]","CO2_dry [ppm]","DasTemp [C]","EtalonTemp [C]","WarmBoxTemp [C]","MPVPosition","T_ECpre [C]","T_EC1 [C]","T_EC2 [C]","p_inlet [hPa]","p_in [hPa]","p_out [hPa]","T_inlet [C]","RH_inlet [%]","dwpt_inlet [C]","T_vent [C]","RH_vent [%]","dwpt_vent [C]","flow_vent [l min-1]","flow_inlet [l min-1]","dwpt_sample [C]","T_room [C]"
2015-06-30 00:00:00,0.0,1.89981,0.00138,389.961,0.191,1.1385,0.0045,139.997,45.000,31996.98417,1.92188,395.498,36.627,45.067,45.000,0.00,0.10,-272.71,-272.77,-2,659,-10,27.2,24.3,5.0,26.8,24.6,4.9,5.73,1.66,3.8,30.8
2015-06-30 00:01:00,0.0,1.90071,0.00144,390.143,0.240,1.1350,0.0025,139.999,45.000,32000.43946,1.92285,395.681,36.631,45.066,45.000,0.00,0.10,-272.72,-272.78,-2,659,-10,27.2,24.2,4.9,26.9,24.6,4.9,5.73,1.71,3.8,30.9
2015-06-30 00:02:00,0.0,1.90244,0.00296,390.408,0.494,1.1293,0.0042,139.997,45.000,31999.81695,1.92409,395.883,36.654,45.067,45.000,0.00,0.10,-272.71,-272.78,-2,659,-10,27.2,23.9,4.8,26.9,24.6,4.9,5.73,1.76,3.8,30.8
2015-06-30 00:03:00,0.0,1.90269,0.00212,390.485,0.308,1.1106,0.0073,139.998,45.000,31999.87593,1.92447,395.915,36.677,45.067,45.000,0.00,0.10,-272.71,-272.77,-2,659,-10,27.2,23.6,4.6,26.9,24.6,4.9,5.73,1.77,3.8,30.9
2015-06-30 00:04:00,0.0,1.90213,0.00180,390.290,0.321,1.1246,0.0071,139.992,45.000,31998.16193,1.92397,395.768,36.688,45.066,45.000,0.00,0.10,-272.71,-272.78,-2,659,-10,27.2,24.0,4.8,26.9,24.6,4.9,5.73,1.75,3.8,30.9
2015-06-30 00:05:00,0.0,1.90271,0.00164,390.359,0.244,1.1315,0.0065,139.997,45.000,31997.46153,1.92470,395.866,36.687,45.066,45.000,0.00,0.10,-272.71,-272.77,-2,659,-10,27.2,24.1,4.9,26.9,24.6,4.9,5.73,1.70,3.8,30.9
2015-06-30 00:06:00,0.0,1.90133,0.00225,390.103,0.368,1.1276,0.0048,139.996,45.000,31999.22517,1.92299,395.577,36.686,45.066,45.000,0.00,0.10,-272.71,-272.77,-2,659,-10,27.2,24.0,4.9,26.9,24.6,4.9,5.73,1.65,3.8,30.9
2015-06-30 00:07:00,0.0,1.90366,0.00111,390.509,0.097,1.1235,0.0094,140.001,45.000,32001.03541,1.92552,395.984,36.677,45.066,45.000,0.00,0.10,-272.72,-272.77,-2,659,-10,27.2,23.7,4.7,26.9,24.6,4.9,5.73,1.65,3.8,31.0
2015-06-30 00:08:00,0.0,1.89996,0.00201,389.981,0.380,1.1229,0.0067,140.000,45.000,31999.69127,1.92192,395.453,36.674,45.067,45.000,0.00,0.10,-272.72,-272.78,-2,659,-10,27.2,24.0,4.9,26.9,24.6,4.9,5.73,1.68,3.8,31.0
2015-06-30 00:09:00,0.0,1.89966,0.00130,389.882,0.239,1.1418,0.0048,139.997,45.000,31998.69724,1.92182,395.439,36.675,45.067,45.000,0.00,0.10,-272.70,-272.77,-2,659,-10,27.2,24.3,5.0,26.9,24.5,4.9,5.73,1.73,3.8,31.0
2015-06-30 00:10:00,0.0,1.90149,0.00269,390.204,0.423,1.1344,0.0033,140.000,45.000,31999.05325,1.92334,395.714,36.674,45.067,45.000,0.00,0.10,-272.70,-272.77,-2,659,-10,27.2,24.1,4.9,26.9,24.5,4.9,5.73,1.77,3.8,31.0
2015-06-30 00:11:00,0.0,1.89886,0.00169,389.762,0.286,1.1269,0.0069,140.000,45.000,31999.95740,1.92102,395.269,36.682,45.067,45.000,0.00,0.10,-272.71,-272.77,-2,659,-10,27.2,24.0,4.9,26.9,24.5,4.9,5.73,1.76,3.8,31.0
2015-06-30 00:12:00,0.0,1.89815,0.00106,389.602,0.116,1.1507,0.0073,139.996,45.000,31996.64304,1.92024,395.179,36.689,45.067,45.000,0.00,0.10,-272.71,-272.77,-2,659,-10,27.2,24.5,5.2,26.9,24.5,4.9,5.73,1.73,3.8,31.0
2015-06-30 00:13:00,0.0,1.89929,0.00138,389.795,0.279,1.1501,0.0056,140.001,45.000,31998.72828,1.92155,395.384,36.694,45.067,45.000,0.00,0.10,-272.71,-272.77,-2,659,-10,27.3,24.4,5.1,26.9,24.4,4.9,5.73,1.69,3.8,30.9
2015-06-30 00:14:00,0.0,1.89814,0.00143,389.641,0.260,1.1433,0.0053,140.001,45.000,32000.31634,1.92050,395.219,36.693,45.067,45.000,0.00,0.10,-272.71,-272.78,-2,659,-10,27.2,24.3,5.1,26.9,24.4,4.9,5.73,1.65,3.8,31.0
2015-06-30 00:15:00,0.0,1.89799,0.00109,389.571,0.153,1.1564,0.0037,140.000,45.000,32001.90431,1.92042,395.197,36.688,45.067,45.000,0.00,0.10,-272.71,-272.78,-2,659,-10,27.2,24.5,5.2,26.9,24.4,4.9,5.73,1.65,3.9,31.0
2015-06-30 00:16:00,0.0,1.89969,0.00194,389.901,0.271,1.1509,0.0020,140.001,45.000,32001.65159,1.92190,395.495,36.689,45.067,45.000,0.00,0.10,-272.71,-272.78,-2,659,-10,27.3,24.3,5.1,26.9,24.4,4.8,5.73,1.68,3.8,31.0
2015-06-30 00:17:00,0.0,1.90084,0.00103,390.185,0.155,1.1368,0.0045,140.002,45.000,32003.20279,1.92281,395.711,36.688,45.067,45.000,0.00,0.10,-272.71,-272.78,-2,659,-10,27.3,24.0,4.9,27.0,24.3,4.9,5.73,1.73,3.9,31.0
2015-06-30 00:18:00,0.0,1.89913,0.00130,389.840,0.229,1.1409,0.0051,140.005,45.000,32005.08011,1.92147,395.405,36.690,45.067,45.000,0.00,0.10,-272.72,-272.78,-2,659,-10,27.3,24.2,5.1,26.9,24.3,4.8,5.73,1.76,3.9,31.1
2015-06-30 00:19:00,0.0,1.89831,0.00062,389.643,0.094,1.1553,0.0040,139.999,45.000,32004.48318,1.92068,395.267,36.702,45.067,45.000,0.00,0.10,-272.71,-272.77,-2,659,-10,27.3,24.5,5.2,26.9,24.3,4.8,5.73,1.76,3.9,31.0
2015-06-30 00:20:00,0.0,1.89921,0.00215,389.801,0.373,1.1560,0.0038,140.002,45.000,32003.68676,1.92172,395.433,36.733,45.067,45.000,0.00,0.10,-272.71,-272.77,-2,659,-10,27.3,24.4,5.2,26.9,24.3,4.8,5.73,1.73,3.9,31.0
2015-06-30 00:21:00,0.0,1.89909,0.00235,389.733,0.373,1.1548,0.0088,139.999,45.000,32002.22799,1.92123,395.327,36.740,45.067,45.000,0.00,0.10,-272.72,-272.77,-2,659,-10,27.3,24.6,5.3,27.0,24.3,4.9,5.73,1.68,3.9,31.1
2015-06-30 00:22:00,0.0,1.89696,0.00163,389.436,0.231,1.1590,0.0066,140.001,45.000,32001.80691,1.91952,395.083,36.750,45.067,45.000,0.00,0.10,-272.72,-272.77,-2,659,-10,27.3,24.5,5.3,27.0,24.3,4.9,5.73,1.65,3.9,31.0
2015-06-30 00:23:00,0.0,1.89862,0.00131,389.689,0.208,1.1624,0.0055,140.002,45.000,32003.46041,1.92127,395.354,36.765,45.066,45.000,0.00,0.10,-272.71,-272.77,-2,659,-10,27.3,24.6,5.3,27.0,24.3,4.9,5.73,1.65,3.9,31.1
2015-06-30 00:24:00,0.0,1.89848,0.00144,389.667,0.220,1.1632,0.0033,140.000,45.000,32001.48227,1.92101,395.323,36.788,45.066,45.000,0.00,0.10,-272.71,-272.78,-2,659,-10,27.3,24.6,5.3,27.0,24.3,4.9,5.73,1.68,3.9,31.1
2015-06-30 00:25:00,0.0,1.89794,0.00091,389.624,0.134,1.1563,0.0048,140.001,45.000,32001.38290,1.92038,395.254,36.806,45.066,45.000,0.00,0.10,-272.71,-272.78,-2,659,-10,27.3,24.4,5.2,27.0,24.3,4.9,5.73,1.73,3.9,31.1
2015-06-30 00:26:00,0.0,1.89838,0.00197,389.642,0.293,1.1586,0.0018,139.996,45.000,31998.00997,1.92082,395.274,36.812,45.066,45.000,0.00,0.10,-272.71,-272.77,-2,659,-10,27.3,24.4,5.2,27.0,24.3,4.9,5.73,1.76,3.9,31.1
2015-06-30 00:27:00,0.0,1.89862,0.00197,389.806,0.321,1.1497,0.0070,139.999,45.000,31998.79191,1.92110,395.418,36.806,45.066,45.000,0.00,0.10,-272.71,-272.77,-2,659,-10,27.3,24.2,5.1,27.0,24.3,4.9,5.73,1.76,3.9,31.0
2015-06-30 00:28:00,0.0,1.89698,0.00101,389.471,0.136,1.1535,0.0054,139.999,45.000,32000.51112,1.91921,395.067,36.808,45.066,45.000,0.00,0.10,-272.72,-272.78,-2,659,-10,27.4,24.4,5.2,27.0,24.3,4.9,5.73,1.74,3.9,31.1
2015-06-30 00:29:00,0.0,1.89547,0.00134,389.197,0.209,1.1542,0.0027,140.001,45.000,32001.08481,1.91781,394.807,36.813,45.066,45.000,0.00,0.10,-272.71,-272.77,-2,659,-10,27.4,24.4,5.2,27.0,24.3,4.9,5.73,1.69,3.9,31.1
2015-06-30 00:30:00,0.0,1.89863,0.00112,389.785,0.189,1.1566,0.0048,140.002,45.000,32001.24716,1.92100,395.407,36.815,45.067,45.000,0.00,0.10,-272.71,-272.78,-2,659,-10,27.3,24.2,5.1,27.0,24.3,4.9,5.73,1.66,3.9,31.1
2015-06-30 00:31:00,0.0,1.89568,0.00121,389.320,0.219,1.1526,0.0072,139.998,45.000,32002.51596,1.91819,394.939,36.818,45.067,45.000,0.00,0.10,-272.71,-272.78,-3,659,-10,27.4,24.4,5.2,27.1,24.4,5.0,5.73,1.66,4.0,31.1
2015-06-30 00:32:00,0.0,1.89466,0.00085,389.109,0.124,1.1637,0.0027,139.996,45.000,32000.78533,1.91714,394.761,36.814,45.067,45.000,0.00,0.10,-272.71,-272.78,-2,659,-10,27.4,24.6,5.4,27.1,24.3,4.9,5.73,1.67,3.9,31.1
2015-06-30 00:33:00,0.0,1.89444,0.00071,388.998,0.124,1.1790,0.0049,140.000,45.000,31999.94195,1.91735,394.734,36.814,45.067,45.000,0.00,0.10,-272.71,-272.77,-2,659,-10,27.4,25.0,5.6,27.1,24.4,5.0,5.73,1.71,4.0,31.1
2015-06-30 00:34:00,0.0,1.89452,0.00051,389.030,0.122,1.1896,0.0033,140.001,45.000,32000.89955,1.91758,394.812,36.813,45.067,45.000,0.00,0.10,-272.72,-272.77,-2,659,-10,27.4,25.1,5.6,27.1,24.4,5.0,5.73,1.74,4.0,31.1
2015-06-30 00:35:00,0.0,1.89330,0.00098,388.846,0.086,1.1874,0.0034,140.004,45.000,32001.43440,1.91640,394.626,36.813,45.067,45.000,0.00,0.10,-272.71,-272.78,-2,659,-10,27.4,25.0,5.6,27.1,24.4,5.0,5.73,1.77,4.0,31.1
2015-06-30 00:36:00,0.0,1.89257,0.00141,388.696,0.215,1.1852,0.0026,140.001,45.000,32001.29915,1.91547,394.456,36.820,45.067,45.000,0.00,0.10,-272.71,-272.77,-2,659,-10,27.4,25.0,5.6,27.1,24.4,5.0,5.73,1.75,4.0,31.1
2015-06-30 00:37:00,0.0,1.89402,0.00065,388.813,0.095,1.1933,0.0062,140.000,45.000,32002.41786,1.91706,394.605,36.852,45.067,45.000,0.00,0.10,-272.71,-272.77,-3,659,-10,27.4,25.3,5.8,27.1,24.4,5.0,5.73,1.72,4.0,31.1
2015-06-30 00:38:00,0.0,1.89416,0.00058,388.836,0.065,1.2119,0.0040,139.997,45.000,32000.85080,1.91770,394.734,36.873,45.067,45.000,0.00,0.10,-272.71,-272.77,-2,659,-10,27.4,25.5,5.9,27.1,24.4,5.0,5.73,1.67,4.0,31.1
2015-06-30 00:39:00,0.0,1.89415,0.00080,388.942,0.137,1.1925,0.0058,140.005,45.000,32008.00653,1.91716,394.734,36.875,45.066,45.000,0.00,0.10,-272.71,-272.77,-2,659,-10,27.4,25.0,5.6,27.1,24.4,5.0,5.73,1.65,4.0,31.1
2015-06-30 00:40:00,0.0,1.89368,0.00101,388.861,0.128,1.1800,0.0026,140.000,45.000,32005.80555,1.91679,394.613,36.870,45.066,45.000,0.00,0.10,-272.70,-272.77,-2,659,-10,27.4,24.8,5.5,27.1,24.4,5.0,5.73,1.66,4.0,31.1
2015-06-30 00:41:00,0.0,1.89293,0.00233,388.735,0.341,1.1743,0.0038,140.005,45.000,32007.98402,1.91524,394.410,36.872,45.066,45.000,0.00,0.10,-272.71,-272.77,-2,659,-10,27.4,24.6,5.4,27.1,24.4,5.0,5.73,1.68,4.0,31.2
2015-06-30 00:42:00,0.0,1.89737,0.00116,389.590,0.167,1.1639,0.0062,139.999,45.000,32006.07611,1.92006,395.260,36.873,45.066,45.000,0.00,0.10,-272.71,-272.78,-3,659,-10,27.4,24.3,5.2,27.1,24.5,5.1,5.73,1.73,4.0,31.1
2015-06-30 00:43:00,0.0,1.89620,0.00165,389.441,0.245,1.1519,0.0025,139.997,45.000,32005.62770,1.91854,395.047,36.875,45.066,45.000,0.00,0.10,-272.71,-272.77,-3,659,-10,27.4,24.2,5.2,27.1,24.5,5.1,5.73,1.75,4.0,31.1
2015-06-30 00:44:00,0.0,1.89481,0.00126,389.141,0.144,1.1542,0.0031,140.006,45.000,32005.73146,1.91712,394.745,36.886,45.067,45.000,0.00,0.10,-272.71,-272.77,-2,659,-10,27.4,24.2,5.2,27.1,24.5,5.1,5.73,1.76,4.0,31.1
2015-06-30 00:45:00,0.0,1.89432,0.00137,389.095,0.201,1.1584,0.0024,139.999,45.000,32004.74858,1.91685,394.730,36.887,45.067,45.000,0.00,0.10,-272.71,-272.77,-2,659,-10,27.4,24.3,5.2,27.1,24.5,5.1,5.73,1.74,4.0,31.1
2015-06-30 00:46:00,0.0,1.89700,0.00102,389.529,0.191,1.1509,0.0027,140.001,45.000,32008.10157,1.91920,395.121,36.875,45.067,45.000,0.00,0.10,-272.71,-272.77,-2,659,-10,27.4,24.1,5.1,27.1,24.6,5.1,5.73,1.71,4.0,31.2
2015-06-30 00:47:00,0.0,1.89494,0.00145,389.159,0.209,1.1505,0.0019,140.005,45.000,32007.61673,1.91724,394.749,36.885,45.067,45.000,0.00,0.10,-272.71,-272.77,-2,659,-10,27.4,24.1,5.1,27.1,24.6,5.1,5.73,1.67,4.1,31.2
2015-06-30 00:48:00,0.0,1.89573,0.00138,389.300,0.211,1.1487,0.0024,139.995,45.000,32005.55775,1.91806,394.892,36.912,45.067,45.000,0.00,0.10,-272.72,-272.77,-3,658,-10,27.5,24.1,5.1,27.1,24.6,5.2,5.73,1.66,4.1,31.2
2015-06-30 00:49:00,0.0,1.89583,0.00111,389.261,0.181,1.1538,0.0018,140.004,45.000,32007.32552,1.91801,394.857,36.890,45.067,45.000,0.00,0.10,-272.71,-272.77,-3,659,-10,27.5,24.2,5.2,27.1,24.6,5.1,5.73,1.66,4.1,31.2
2015-06-30 00:50:00,0.0,1.89499,0.00127,389.110,0.188,1.1598,0.0050,140.004,45.000,32007.18890,1.91762,394.757,36.879,45.067,45.000,0.00,0.10,-272.70,-272.77,-2,658,-10,27.5,24.4,5.3,27.1,24.6,5.2,5.73,1.69,4.1,31.2
2015-06-30 00:51:00,0.0,1.89366,0.00193,388.829,0.295,1.1749,0.0018,139.996,45.000,32005.73165,1.91612,394.517,36.875,45.067,45.000,0.00,0.10,-272.71,-272.77,-2,659,-10,27.5,24.6,5.5,27.1,24.6,5.1,5.73,1.71,4.1,31.2
2015-06-30 00:52:00,0.0,1.89447,0.00161,389.084,0.240,1.1683,0.0067,140.004,45.000,32007.40261,1.91730,394.778,36.875,45.067,45.000,0.00,0.10,-272.71,-272.77,-2,659,-10,27.5,24.4,5.3,27.1,24.6,5.2,5.73,1.75,4.1,31.3
2015-06-30 00:53:00,0.0,1.89407,0.00113,388.977,0.167,1.1711,0.0013,140.004,45.000,32007.65682,1.91659,394.654,36.876,45.067,45.000,0.00,0.10,-272.70,-272.77,-2,659,-10,27.5,24.5,5.4,27.1,24.6,5.2,5.73,1.75,4.1,31.2
2015-06-30 00:54:00,0.0,1.89504,0.00150,389.200,0.232,1.1621,0.0042,139.999,45.000,32006.32152,1.91772,394.863,36.876,45.067,45.000,0.00,0.10,-272.71,-272.77,-3,658,-10,27.5,24.3,5.3,27.1,24.6,5.2,5.73,1.74,4.1,31.2
2015-06-30 00:55:00,0.0,1.89485,0.00149,389.126,0.228,1.1668,0.0029,139.999,45.000,32005.32234,1.91738,394.795,36.877,45.067,45.000,0.00,0.10,-272.71,-272.78,-3,658,-10,27.5,24.4,5.4,27.1,24.5,5.1,5.73,1.72,4.1,31.2
2015-06-30 00:56:00,0.0,1.89528,0.00116,389.275,0.158,1.1572,0.0052,140.004,45.000,32007.72495,1.91779,394.904,36.880,45.067,45.000,0.00,0.10,-272.70,-272.77,-2,658,-10,27.5,24.1,5.2,27.2,24.5,5.2,5.73,1.68,4.1,31.1
2015-06-30 00:57:00,0.0,1.89179,0.00104,388.737,0.225,1.1539,0.0030,140.003,45.000,32006.13833,1.91416,394.352,36.891,45.067,45.000,0.00,0.10,-272.70,-272.78,-2,658,-10,27.5,24.1,5.2,27.2,24.5,5.2,5.73,1.66,4.1,31.2
2015-06-30 00:58:00,0.0,1.89166,0.00279,388.641,0.400,1.1608,0.0023,139.999,45.000,32005.48934,1.91383,394.251,36.883,45.067,45.000,0.00,0.10,-272.72,-272.78,-2,658,-10,27.5,24.2,5.2,27.2,24.5,5.2,5.73,1.66,4.1,31.3
2015-06-30 00:59:00,0.0,1.89208,0.00116,388.715,0.196,1.1565,0.0022,140.004,45.000,32003.30549,1.91478,394.352,36.905,45.067,45.000,0.00,0.10,-272.71,-272.77,-2,658,-10,27.5,24.1,5.2,27.2,24.5,5.1,5.73,1.67,4.1,31.2
2015-06-30 01:00:00,0.0,1.88917,0.00070,388.228,0.081,1.1589,0.0016,139.999,45.000,32003.74059,1.91163,393.854,36.905,45.067,45.000,0.00,0.10,-272.71,-272.77,-3,658,-10,27.5,24.1,5.2,27.2,24.5,5.1,5.73,1.70,4.1,31.2
2015-06-30 01:01:00,0.0,1.89034,0.00130,388.432,0.184,1.1560,0.0023,139.999,45.000,32002.77100,1.91259,394.038,36.904,45.066,45.000,0.00,0.10,-272.72,-272.77,-3,658,-10,27.5,24.1,5.2,27.2,24.5,5.1,5.73,1.74,4.1,31.2
2015-06-30 01:02:00,0.0,1.89110,0.00116,388.537,0.172,1.1592,0.0016,140.002,45.000,32004.06933,1.91352,394.159,36.897,45.067,45.000,0.00,0.10,-272.72,-272.78,-2,658,-10,27.5,24.2,5.3,27.2,24.5,5.1,5.73,1.75,4.1,31.3
2015-06-30 01:03:00,0.0,1.89058,0.00101,388.434,0.133,1.1644,0.0023,140.001,45.000,32005.02452,1.91296,394.076,36.925,45.066,45.000,0.00,0.10,-272.71,-272.76,-2,658,-10,27.5,24.3,5.3,27.2,24.5,5.1,5.73,1.75,4.2,31.3
2015-06-30 01:04:00,0.0,1.89087,0.00069,388.457,0.093,1.1703,0.0058,140.007,45.000,32007.30058,1.91351,394.136,36.937,45.066,45.000,0.00,0.10,-272.71,-272.77,-2,658,-10,27.6,24.5,5.4,27.2,24.5,5.1,5.73,1.73,4.1,31.3
2015-06-30 01:05:00,0.0,1.89223,0.00127,388.711,0.194,1.1693,0.0055,139.999,45.000,32004.21535,1.91484,394.391,36.941,45.066,45.000,0.00,0.10,-272.71,-272.78,-2,658,-10,27.6,24.3,5.3,27.2,24.5,5.1,5.73,1.71,4.2,31.3
2015-06-30 01:06:00,0.0,1.89234,0.00153,388.735,0.206,1.1646,0.0029,140.003,45.000,32007.86476,1.91493,394.389,36.964,45.066,45.000,0.00,0.10,-272.71,-272.77,-3,658,-10,27.6,24.3,5.4,27.2,24.4,5.2,5.73,1.67,4.2,31.3
2015-06-30 01:07:00,0.0,1.89012,0.00152,388.354,0.227,1.1739,0.0027,139.998,45.000,32004.68962,1.91271,394.045,36.999,45.066,45.000,0.00,0.10,-272.70,-272.77,-3,658,-10,27.6,24.4,5.4,27.2,24.4,5.2,5.73,1.65,4.2,31.3
2015-06-30 01:08:00,0.0,1.88780,0.00134,388.058,0.242,1.1728,0.0027,139.997,45.000,32004.41100,1.91068,393.768,37.038,45.066,45.000,0.00,0.10,-272.71,-272.77,-2,658,-10,27.6,24.3,5.4,27.2,24.4,5.1,5.73,1.66,4.2,31.3
2015-06-30 01:09:00,0.0,1.88705,0.00042,387.935,0.066,1.1629,0.0019,140.001,45.000,32005.93209,1.90943,393.565,37.062,45.066,44.999,0.00,0.10,-272.71,-272.78,-2,658,-10,27.6,24.2,5.3,27.3,24.4,5.2,5.73,1.69,4.2,31.3
2015-06-30 01:10:00,0.0,1.88871,0.00107,388.199,0.175,1.1604,0.0014,139.999,45.000,32005.93800,1.91102,393.819,37.063,45.066,44.999,0.00,0.10,-272.70,-272.77,-2,658,-10,27.6,24.1,5.3,27.3,24.4,5.1,5.73,1.73,4.2,31.3
2015-06-30 01:11:00,0.0,1.89076,0.00157,388.482,0.221,1.1623,0.0026,139.999,45.000,32007.33836,1.91320,394.119,37.063,45.066,45.000,0.00,0.10,-272.71,-272.77,-3,658,-10,27.6,24.2,5.3,27.3,24.4,5.2,5.73,1.76,4.2,31.3
2015-06-30 01:12:00,0.0,1.89211,0.00124,388.789,0.198,1.1585,0.0033,140.002,45.000,32007.41685,1.91449,394.407,37.062,45.066,45.000,0.00,0.10,-272.72,-272.78,-3,658,-10,27.6,24.1,5.3,27.3,24.4,5.1,5.73,1.75,4.2,31.3
2015-06-30 01:13:00,0.0,1.89094,0.00122,388.599,0.181,1.1649,0.0039,139.997,45.000,32006.08498,1.91330,394.246,37.061,45.066,45.000,0.00,0.10,-272.71,-272.77,-3,658,-10,27.6,24.2,5.4,27.3,24.4,5.1,5.73,1.73,4.2,31.3
2015-06-30 01:14:00,0.0,1.89074,0.00254,388.434,0.377,1.1729,0.0049,140.001,45.000,32009.55542,1.91365,394.147,37.054,45.066,45.000,0.00,0.10,-272.71,-272.76,-2,658,-10,27.6,24.4,5.5,27.3,24.4,5.2,5.73,1.70,4.2,31.3
2015-06-30 01:15:00,0.0,1.88721,0.00206,387.906,0.264,1.1682,0.0029,140.006,45.000,32012.21826,1.90964,393.559,37.054,45.067,45.000,0.00,0.10,-272.72,-272.78,-2,658,-10,27.6,24.2,5.4,27.3,24.4,5.2,5.73,1.66,4.2,31.4
2015-06-30 01:16:00,0.0,1.88860,0.00152,388.164,0.159,1.1698,0.0033,139.998,45.000,32010.49048,1.91131,393.842,37.044,45.067,45.000,0.00,0.10,-272.71,-272.78,-2,658,-10,27.7,24.3,5.4,27.3,24.4,5.2,5.73,1.65,4.2,31.3
2015-06-30 01:17:00,0.0,1.88777,0.00069,388.044,0.081,1.1652,0.0025,140.005,45.000,32010.85471,1.91026,393.696,37.033,45.067,45.001,0.00,0.10,-272.70,-272.77,-3,658,-10,27.6,24.2,5.4,27.3,24.4,5.2,5.73,1.67,4.3,31.4
2015-06-30 01:18:00,0.0,1.88692,0.00070,387.876,0.087,1.1722,0.0043,140.004,45.000,32010.79873,1.90947,393.552,37.019,45.067,45.001,0.00,0.10,-272.71,-272.78,-3,658,-10,27.7,24.3,5.4,27.3,24.4,5.2,5.73,1.70,4.2,31.4
2015-06-30 01:19:00,0.0,1.88850,0.00152,388.091,0.194,1.1671,0.0023,140.002,45.000,32010.46983,1.91100,393.748,37.035,45.067,45.001,0.00,0.10,-272.71,-272.78,-3,658,-10,27.7,24.2,5.3,27.3,24.4,5.2,5.73,1.74,4.3,31.3
2015-06-30 01:20:00,0.0,1.88736,0.00115,387.949,0.166,1.1607,0.0043,140.002,45.000,32010.64566,1.90984,393.579,37.060,45.067,45.000,0.00,0.10,-272.70,-272.77,-2,658,-10,27.7,24.0,5.2,27.3,24.4,5.2,5.73,1.76,4.3,31.4
2015-06-30 01:21:00,0.0,1.88713,0.00093,387.882,0.142,1.1598,0.0035,140.001,45.000,32010.68965,1.90947,393.501,37.062,45.067,45.000,0.00,0.10,-272.71,-272.77,-2,658,-10,27.7,24.1,5.3,27.3,24.4,5.2,5.73,1.75,4.3,31.4
2015-06-30 01:22:00,0.0,1.88572,0.00090,387.748,0.098,1.1642,0.0052,139.999,45.000,32013.25836,1.90831,393.396,37.057,45.067,45.000,0.00,0.10,-272.71,-272.78,-2,658,-10,27.7,24.0,5.3,27.3,24.4,5.2,5.73,1.72,4.3,31.4
2015-06-30 01:23:00,0.0,1.88538,0.00064,387.592,0.081,1.1561,0.0030,140.003,45.000,32011.35860,1.90763,393.186,37.058,45.066,45.000,0.00,0.10,-272.71,-272.77,-3,658,-10,27.7,23.9,5.2,27.4,24.4,5.2,5.73,1.68,4.3,31.4
2015-06-30 01:24:00,0.0,1.88464,0.00047,387.570,0.043,1.1515,0.0022,139.998,45.000,32010.75467,1.90686,393.142,37.063,45.067,45.000,0.00,0.10,-272.71,-272.77,-3,658,-10,27.7,23.8,5.1,27.4,24.4,5.2,5.73,1.66,4.3,31.4
2015-06-30 01:25:00,0.0,1.88486,0.00041,387.560,0.068,1.1503,0.0027,139.998,45.000,32010.61186,1.90699,393.127,37.085,45.066,45.000,0.00,0.10,-272.71,-272.78,-3,658,-10,27.7,23.8,5.2,27.4,24.4,5.2,5.73,1.65,4.3,31.4
2015-06-30 01:26:00,0.0,1.88448,0.00032,387.498,0.043,1.1590,0.0062,140.000,45.000,32011.25498,1.90681,393.107,37.113,45.066,45.000,0.00,0.10,-272.71,-272.77,-2,658,-10,27.7,23.9,5.2,27.4,24.4,5.2,5.73,1.67,4.3,31.3
2015-06-30 01:27:00,0.0,1.88517,0.00062,387.546,0.060,1.1616,0.0106,139.998,45.000,32011.42593,1.90749,393.163,37.125,45.066,45.000,0.00,0.10,-272.70,-272.76,-2,658,-10,27.7,24.2,5.4,27.4,24.3,5.2,5.73,1.71,4.3,31.4
2015-06-30 01:28:00,0.0,1.88521,0.00067,387.547,0.095,1.1660,0.0078,140.003,45.000,32011.92216,1.90773,393.200,37.142,45.066,45.000,0.00,0.10,-272.71,-272.77,-3,658,-10,27.7,24.0,5.3,27.4,24.3,5.2,5.73,1.73,4.3,31.4
2015-06-30 01:29:00,0.0,1.88704,0.00223,387.693,0.262,1.1762,0.0190,139.998,45.000,32010.69544,1.90961,393.376,37.163,45.066,45.000,0.00,0.10,-272.71,-272.78,-3,658,-10,27.7,24.6,5.6,27.4,24.4,5.2,5.73,1.75,4.3,31.4
2015-06-30 01:30:00,0.0,1.88469,0.00097,387.370,0.156,1.1719,0.0178,140.001,45.000,32013.71425,1.90733,393.054,37.186,45.066,45.000,0.00,0.10,-272.70,-272.77,-3,658,-10,27.7,24.0,5.3,27.4,24.3,5.2,5.73,1.75,4.3,31.4
2015-06-30 01:31:00,0.0,1.88858,0.00176,387.822,0.205,1.2023,0.0231,140.003,45.000,32012.98770,1.91163,393.638,37.188,45.066,45.000,0.00,0.10,-272.70,-272.77,-3,658,-10,27.7,25.2,6.0,27.4,24.3,5.2,5.73,1.73,4.3,31.4
2015-06-30 01:32:00,0.0,1.88608,0.00145,387.530,0.162,1.1981,0.0209,139.998,45.000,32014.17590,1.90931,393.346,37.192,45.066,45.000,0.00,0.10,-272.71,-272.77,-2,658,-10,27.7,24.4,5.5,27.4,24.3,5.2,5.73,1.69,4.4,31.4
2015-06-30 01:33:00,0.0,1.88669,0.00123,387.703,0.184,1.1718,0.0087,140.001,45.000,32014.21998,1.90929,393.380,37.194,45.066,45.000,0.00,0.10,-272.71,-272.77,-2,658,-10,27.7,24.2,5.4,27.4,24.3,5.2,5.73,1.67,4.4,31.4
2015-06-30 01:34:00,0.0,1.89036,0.00108,388.073,0.137,1.1887,0.0208,139.998,45.000,32013.69641,1.91311,393.819,37.204,45.066,45.000,0.00,0.10,-272.70,-272.77,-3,658,-10,27.7,24.9,5.9,27.4,24.3,5.2,5.73,1.66,4.4,31.5
2015-06-30 01:35:00,0.0,1.89318,0.00287,388.446,0.343,1.2151,0.0114,139.999,45.000,32012.78285,1.91636,394.332,37.233,45.066,45.000,0.00,0.10,-272.71,-272.78,-3,658,-10,27.8,25.2,6.0,27.4,24.3,5.2,5.73,1.66,4.4,31.5
2015-06-30 01:36:00,0.0,1.89190,0.00255,388.288,0.330,1.2160,0.0176,139.998,45.000,32013.20860,1.91575,394.211,37.249,45.066,45.000,0.00,0.10,-272.71,-272.78,-3,658,-10,27.8,24.8,5.8,27.4,24.3,5.2,5.73,1.69,4.4,31.5
2015-06-30 01:37:00,0.0,1.89211,0.00216,388.379,0.298,1.1903,0.0124,140.004,45.000,32012.65131,1.91521,394.164,37.250,45.066,45.000,0.00,0.10,-272.70,-272.77,-3,657,-10,27.8,24.6,5.7,27.4,24.3,5.2,5.73,1.72,4.4,31.5
2015-06-30 01:38:00,0.0,1.88661,0.00290,387.697,0.475,1.1683,0.0240,140.000,45.000,32011.86021,1.90958,393.397,37.246,45.066,45.000,0.00,0.10,-272.71,-272.77,-2,658,-10,27.8,23.5,5.0,27.4,24.3,5.2,5.73,1.75,4.4,31.5
2015-06-30 01:39:00,0.0,1.88850,0.00323,387.993,0.524,1.1405,0.0216,140.002,45.000,32015.27365,1.91018,393.483,37.223,45.066,45.000,0.00,0.10,-272.72,-272.77,-2,657,-10,27.8,23.7,5.2,27.5,24.3,5.2,5.73,1.75,4.4,31.5
2015-06-30 01:40:00,0.0,1.88706,0.00196,387.774,0.390,1.1488,0.0108,139.994,45.000,32012.69692,1.90928,393.346,37.228,45.066,45.000,0.00,0.10,-272.71,-272.77,-2,658,-11,27.8,23.5,5.0,27.5,24.3,5.2,5.73,1.74,4.4,31.6
2015-06-30 01:41:00,0.0,1.88787,0.00168,387.935,0.256,1.1522,0.0122,140.003,45.000,32016.00249,1.91011,393.511,37.221,45.067,45.001,0.00,0.10,-272.71,-272.77,-3,658,-11,27.8,23.8,5.2,27.5,24.3,5.3,5.73,1.71,4.4,31.6
2015-06-30 01:42:00,0.0,1.88654,0.00134,387.630,0.222,1.1519,0.0075,140.004,45.000,32015.11396,1.90863,393.198,37.217,45.067,45.000,0.00,0.10,-272.71,-272.77,-3,658,-11,27.8,23.6,5.1,27.5,24.3,5.3,5.73,1.69,4.4,31.5
2015-06-30 01:43:00,0.0,1.88997,0.00138,388.123,0.199,1.1645,0.0075,139.997,45.000,32012.97399,1.91242,393.769,37.208,45.067,45.001,0.00,0.10,-272.71,-272.77,-3,657,-10,27.8,24.0,5.3,27.5,24.4,5.3,5.73,1.67,4.4,31.5
2015-06-30 01:44:00,0.0,1.89076,0.00117,388.198,0.152,1.1727,0.0062,139.997,45.000,32012.34368,1.91341,393.884,37.209,45.067,45.001,0.00,0.10,-272.71,-272.76,-3,657,-11,27.8,24.1,5.4,27.5,24.4,5.3,5.73,1.65,4.4,31.5
2015-06-30 01:45:00,0.0,1.88828,0.00112,387.814,0.170,1.1593,0.0060,140.002,45.000,32016.00566,1.91072,393.437,37.193,45.067,45.001,0.00,0.10,-272.71,-272.77,-2,658,-10,27.8,23.7,5.2,27.5,24.4,5.3,5.73,1.68,4.4,31.6
2015-06-30 01:46:00,0.0,1.88742,0.00061,387.693,0.094,1.1608,0.0052,139.998,45.000,32015.07186,1.90990,393.319,37.201,45.067,45.000,0.00,0.10,-272.71,-272.77,-2,658,-10,27.8,23.8,5.3,27.5,24.4,5.4,5.73,1.69,4.5,31.6
2015-06-30 01:47:00,0.0,1.88758,0.00047,387.722,0.059,1.1640,0.0043,140.000,45.000,32015.01337,1.91000,393.354,37.200,45.067,45.001,0.00,0.10,-272.70,-272.77,-3,657,-11,27.8,23.9,5.3,27.5,24.4,5.3,5.73,1.72,4.5,31.5